Location: Bodest
(46.3000°N, 22.5667°E)
Time: 20:07:34
(UTC+00:00)

Cosmos 1626 Rocket - Pass Details

Date: 31 May 2022
Orbit: 602 x 631 km, 82.5° (Epoch: 24 June)

Event Time Altitude Azimuth Distance (km) Brightness Sun altitude
Rises 00:21:06 0° 131° (SE) 2,884 6.9 -17.1°
Reaches altitude 10° 00:25:22 10° 91° (E) 1,977 6.5 -16.8°
Maximum altitude 00:26:06 10° 81° (E) 1,952 6.6 -16.7°
Drops below altitude 10° 00:26:50 10° 72° (ENE) 1,977 6.8 -16.6°
Sets 00:31:05 0° 32° (NNE) 2,881 8.8 -16.3°
